Regional Weather Roundup
Issued by NWS Cleveland, OH

Home | Current Version | Previous Version | Graphics & Text | Print | Product List | Glossary On
Versions: 1 2 3 4 5 6 7 8 9 10 11 12 13 14 15 16 17 18 19 20 21 22 23 24 25 26 27 28 29 30 31 32 33 34 35 36 37 38 39 40 41 42 43 44 45 46 47 48 49 50
000
ASUS41 KCLE 281410
RWRCLE
OHIO REGIONAL WEATHER ROUNDUP
NATIONAL WEATHER SERVICE CLEVELAND, OH
1000 AM EDT THU JUL 28 2016

NOTE: "FAIR" INDICATES FEW OR NO CLOUDS BELOW 12,000 FEET WITH NO
SIGNIFICANT WEATHER AND/OR OBSTRUCTIONS TO VISIBILITY.

OHZ001>008-015>018-024>027-034-035-043-044-281500-
   NORTHWEST OHIO

CITY           SKY/WX    TMP DP  RH WIND       PRES   REMARKS
DEFIANCE       PTSUNNY   77  66  68 NE6       29.92F
FINDLAY        MOSUNNY   82  62  50 NE6       29.91F
TOLEDO EXPRESS PTSUNNY   78  71  79 NE5       29.92S
TOLEDO EXEC    CLOUDY    80  72  76 NE5       29.92F
LIMA           CLOUDY    78  67  68 E3        29.92F
$$

OHZ009>014-019>023-028>033-038-089-281500-
   NORTHEAST OHIO

CITY           SKY/WX    TMP DP  RH WIND       PRES   REMARKS
CLE-HOPKINS    CLOUDY    80  62  54 NW3       29.94F
CLE-LAKEFRONT  CLOUDY    79  63  57 N3        29.91F
CUY CO. ARPT   PTSUNNY  N/A N/A N/A E6        29.93F
LORAIN-ELYRIA  CLOUDY    77  65  66 NE5       29.92F
ASHTABULA      MOSUNNY   76  65  68 CALM      29.94F
AKRON-CANTON   CLOUDY    77  65  66 CALM      29.93F
WOOSTER        CLOUDY    75  67  76 CALM      29.94F
MANSFIELD      PTSUNNY   78  66  66 N3        29.93F
YOUNGSTOWN     CLOUDY    75  66  73 E5        29.94F
$$

OHZ042-051>053-060>062-070>072-077>081-281500-
  SOUTHWEST OHIO

CITY           SKY/WX    TMP DP  RH WIND       PRES   REMARKS
CINC-COVINGTON CLOUDY    73  72  96 W7        29.93R
CINC-LUNKEN    PTSUNNY   73  72  96 W5        29.92R
HAMILTON       PTSUNNY   74  72  93 W3        29.93S
DAYTON         CLOUDY    74  70  87 W6        29.94F
WRIGHT-PAT AFB NOT AVBL
DAYTON GENERAL CLOUDY    73  70  90 SW3       29.92S
WILMINGTON     LGT RAIN  72  70  93 CALM      29.92F
$$

OHZ036-037-039>041-045>050-054>059-063>069-073>076-082>088-281500-
  CENTRAL AND SOUTHEAST OHIO

CITY           SKY/WX    TMP DP  RH WIND       PRES   REMARKS
COLUMBUS       LGT RAIN  73  71  93 W5        29.91F
OSU AIRPORT    CLOUDY    74  70  87 SW7       29.92F
BOLTON FIELD     N/A     72  70  94 MISG        N/A
RICKENBACK AFB LGT RAIN  73  71  95 CALM      29.91F
NEWARK         CLOUDY    75  73  93 SW5       29.92F
MARION         CLOUDY    76  64  66 E5        29.93S
LANCASTER      LGT RAIN  75  74  96 W8        29.93S
ZANESVILLE     CLOUDY    76  72  87 SE7       29.93F
NEW PHILLY     CLOUDY    74  67  78 CALM      29.94S THUNDER
$$




USA.gov is the U.S. government's official web portal to all federal, state and local government web resources and services.